Location: ???? ???? ?????
(31.2680°N, 31.7283°E)
Time: 09:22:50
(UTC+00:00)

SL-16 R/B - Pass Details

Date: 13 July 2020
Orbit: 839 x 850 km, 71.0° (Epoch: 07 August)

Event Time Altitude Azimuth Distance (km) Brightness Sun altitude
Exits shadow 19:22:51 60° 184° (S) 957 2.2 -25.2°
Maximum altitude 19:23:54 82° 109° (ESE) 856 2.0 -25.3°
Drops below altitude 10° 19:29:35 10° 22° (NNE) 2,472 4.9 -26.1°
Sets 19:32:03 0° 22° (NNE) 3,412 5.7 -26.4°
